Regional Weather Roundup
Issued by NWS

Home | Current Version | Previous Version | Text Only | Print | Product List | Glossary On
Versions: 1 2 3 4 5 6 7 8 9 10 11 12 13 14 15 16 17 18 19 20 21 22 23 24 25 26 27 28 29 30 31 32 33 34 35 36 37 38 39 40 41 42 43 44 45 46 47 48 49 50
000
ASUS43 KDTX 261901
RWRMI
MICHIGAN HOURLY REGIONAL WEATHER ROUNDUP
NATIONAL WEATHER SERVICE DETROIT/PONTIAC MI
300 PM EDT SAT JUL 26 2014

NOTE: "FAIR" INDICATES FEW OR NO CLOUDS BELOW 12,000 FEET WITH NO
SIGNIFICANT WEATHER AND/OR OBSTRUCTION TO VISIBILITY.

MIZ047>049-052>055-059>063-066>070-074>076-081>083-262000-
SOUTHEAST LOWER MICHIGAN

CITY           SKY/WX    TMP DP  RH WIND       PRES   REMARKS
ADRIAN         PTSUNNY   81  56  42 SW12      29.85F
ALMA           CLOUDY    78  63  59 SW9       29.83S
ANN ARBOR      PTSUNNY   81  60  48 S9        29.83F
BAD AXE        PTSUNNY   76  62  62 SW6       29.83S
CARO           MOSUNNY   81  64  55 SW12      29.82S
DETROIT CITY   PTSUNNY   84  58  40 S14       29.83F
DETROIT        PTSUNNY   81  61  50 S10       29.84F
FLINT          PTSUNNY   82  63  52 VRB5      29.82F
GROSSE ILE     MOSUNNY   77  64  65 S12       29.84F
HILLSDALE      CLOUDY    78  64  60 CALM      29.86S
HOWELL         MOSUNNY   79  59  50 SW8       29.83F

CITY           SKY/WX    TMP DP  RH WIND       PRES   REMARKS
JACKSON        PTSUNNY   79  61  53 S10       29.84F
LAMBERTVILLE   CLOUDY    81  61  50 S8        29.85F
LANSING        CLOUDY    78  63  59 SW7       29.83F
LAPEER         FAIR      80  59  49 SW9       29.83F
MASON          CLOUDY    77  60  55 SW6       29.84F
MONROE         MOSUNNY   81  61  50 SE6       29.82F
MT. CLEMENS    PTSUNNY   77  63  61 SE14      29.82F
PONTIAC        PTSUNNY   81  58  45 S8G16     29.83F
PORT HOPE        N/A     73  63  70 E7        29.82S
PORT HURON     MOSUNNY   79  63  57 S9G17     29.84F
TRI CITIES     PTSUNNY   78  62  57 SW10      29.82F
TROY           PTSUNNY   82  55  38 S12       29.84F
SAGINAW HB     PTSUNNY   79  61  53 SW10      29.81F
$$
MIZ043>046-050>051-056>058-064>065-071>073-077>080-262000-
SOUTHWEST LOWER MICHIGAN

CITY           SKY/WX    TMP DP  RH WIND       PRES   REMARKS
BATTLE CREEK   CLOUDY    77  63  61 VRB7      29.85F
BENTON HARBOR  CLOUDY    74  65  73 W9        29.84F
BIG RAPIDS     CLOUDY    75  62  64 SW6G21    29.82S
COLDWATER      CLOUDY    78  66  66 SW6       29.85R
FREMONT        MOCLDY    77  64  64 SW7       29.82S
HOLLAND        CLOUDY    75  64  68 SW9       29.85F
GRAND RAPIDS   CLOUDY    79  63  57 VRB6      29.83F
IONIA          CLOUDY    75  62  63 W3        29.83F
KALAMAZOO      CLOUDY    77  65  66 S7        29.82F
LUDINGTON      MOSUNNY   74  65  73 W15       29.82R
MARSHALL       CLOUDY    77  62  58 S3        29.84F
MOUNT PLEASANT CLOUDY    77  64  64 S7        29.82S
MUSKEGON       CLOUDY    75  61  61 S8        29.83F
SOUTH HAVEN    CLOUDY    73  66  78 SW8       29.84S
$$
MIZ016>042-262000-
NORTHERN LOWER MICHIGAN

CITY           SKY/WX    TMP DP  RH WIND       PRES   REMARKS
ALPENA         PTSUNNY   78  65  63 S10       29.77F
BEAVER ISLAND  CLOUDY    63  62  94 SW13G18   29.77R
BELLAIRE       PTSUNNY   78  64  61 SW8       29.76S
CADILLAC       CLOUDY    73  65  76 SW12G17   29.82S
CHARLEVOIX     PTSUNNY   73  65  74 SW14G21   29.79R
FRANKFORT      PTSUNNY   73  61  65 SW9G17    29.79S
GAYLORD        CLOUDY    75  64  68 SW12      29.79S
GRAYLING       CLOUDY    77  65  67 SW9       29.81S
HARBOR SPRINGS CLOUDY    74  65  74 W9G18     29.75S
HOUGHTON LAKE  CLOUDY    75  64  68 SW9       29.82S
MANISTEE       MOSUNNY   79  63  57 W9        29.80F
OSCODA         CLOUDY    76  62  62 S12       29.80F
PELLSTON       CLOUDY    77  66  68 SW12      29.75S
ROGERS CITY    CLOUDY    78  68  72 S7        29.76F
TRAVERSE CITY  PTSUNNY   81  64  56 SW8       29.76S
$$
MIZ007>008-015-262000-
EASTERN UPPER MICHIGAN

CITY           SKY/WX    TMP DP  RH WIND       PRES   REMARKS
KINROSS        CLOUDY    64  64 100 NW14      29.76R THUNDER
MACKINAC ISLAN CLOUDY    66  63  88 SW12G22   29.75S
NEWBERRY       CLOUDY    69  65  88 SW8       29.73S
S. S. MARIE    TSTM      65  63  93 S3        29.75F FOG
MUNISING         N/A     73  68  84 SW3       29.72R
$$
MIZ004>006-011>014-085-262000-
CENTRAL UPPER MICHIGAN

CITY           SKY/WX    TMP DP  RH WIND       PRES   REMARKS
MANISTIQUE     PTSUNNY   69  63  82 SW8       29.72F
ESCANABA       MOSUNNY   73  64  73 S20       29.69F
MENOMINEE      MOSUNNY   81  68  65 SW9       29.73F
SAWYER-GWINN   MOSUNNY   75  66  73 NW12      29.73R
$$
MIZ001>003-009>011-084-262000-
WESTERN UPPER MICHIGAN

CITY           SKY/WX    TMP DP  RH WIND       PRES   REMARKS
IRON MOUNTAIN  MOSUNNY   83  60  45 W15G21    29.73S
HOUGHTON       SUNNY     74  59  59 W21       29.75R
COPPER HARBOR    N/A     68  61  78 N9        29.71R
$$

ABBREVIATIONS USED IN REMARKS
   TC - TEMPERATURE IN CELSIUS
  WCI - WIND CHILL INDEX
   HX - HEAT INDEX
  VSB - VISIBILITY




USA.gov is the U.S. government's official web portal to all federal, state and local government web resources and services.